Wind_Speed
31 30 29 28 27 27 27 26 26 25 25 26 27 27 26 26 25 24 23 23 23 22 22 21 21 22 22 21 21 22 21 21 22 22 22 22 22 22 22 22 23 22 22
33 33 32 30 29 29 28 28 27 26 26 27 27 28 28 28 27 27 25 25 24 24 24 23 23 23 22 22 22 22 23 22 23 23 23 23 23 24 24 24 24 23 23
35 34 34 33 32 31 30 30 29 28 27 27 28 29 29 29 30 29 28 27 27 26 26 26 25 25 24 24 24 24 24 24 25 24 24 24 25 25 25 25 24 24 24
35 35 35 35 34 33 32 31 31 30 29 29 29 30 30 31 31 31 30 30 29 28 27 28 28 27 27 27 26 26 26 26 26 26 26 26 27 27 26 25 25 25 25
37 36 36 36 36 35 34 33 33 31 31 31 32 32 32 32 33 32 32 32 31 30 30 30 30 29 29 29 28 28 28 28 28 28 28 28 28 28 27 27 26 26 26
39 37 37 37 37 36 36 35 34 33 33 33 33 33 34 34 34 35 35 34 33 32 32 32 32 31 30 31 31 31 30 30 30 30 30 30 30 29 29 29 28 28 28
40 39 39 39 38 38 37 36 36 35 35 35 35 35 36 37 37 37 37 36 35 35 34 33 33 33 32 32 33 33 33 32 32 32 32 32 31 31 31 31 31 31 30
41 40 41 41 40 38 38 37 37 37 36 36 36 37 38 39 39 40 39 38 38 37 36 36 36 35 35 35 35 35 35 35 35 35 34 34 33 33 33 33 33 33 33
43 42 42 42 43 41 40 40 39 38 37 37 37 37 38 39 40 40 41 40 40 39 39 39 39 38 38 37 37 37 37 37 37 36 36 36 36 36 35 35 35 36 36
45 44 44 44 44 43 41 41 40 40 40 39 39 39 39 39 40 40 41 42 42 42 41 40 40 40 40 40 40 39 40 40 39 39 39 39 39 39 38 38 39 39 39
46 46 45 45 46 44 43 43 42 42 42 42 42 41 40 40 41 41 41 42 42 43 43 43 43 42 41 41 41 42 42 42 42 42 42 42 42 41 41 41 41 41 42
45 47 48 47 47 46 46 45 45 44 43 43 43 42 42 42 42 43 43 43 43 43 44 44 45 44 44 43 43 43 43 44 44 45 45 45 44 44 44 45 45 44 44
46 47 47 48 48 48 48 46 46 46 46 45 45 44 44 44 45 45 45 45 44 44 45 45 46 45 46 45 45 45 45 45 46 46 47 47 47 47 47 47 47 47 47
47 47 48 49 49 49 49 49 47 47 47 47 47 46 45 45 46 47 46 47 46 46 46 46 47 47 47 47 47 47 47 47 48 48 48 48 48 49 50 50 49 49 50
47 47 48 49 50 50 49 49 49 47 46 46 47 46 46 46 46 46 46 47 47 47 46 47 47 47 47 48 48 48 48 48 49 50 51 51 51 51 52 52 52 50 50
47 47 48 48 49 49 49 48 47 47 46 45 45 46 46 46 47 47 47 47 47 47 47 47 47 47 47 48 48 49 50 49 50 51 51 52 52 52 52 51 52 51 51
44 45 46 47 47 48 48 47 46 46 47 46 46 46 47 48 48 48 48 48 48 48 47 47 47 47 48 48 48 49 50 51 51 51 52 52 53 53 53 53 53 53 53
41 42 44 45 45 46 47 47 47 46 46 46 47 47 47 47 48 48 49 49 50 50 49 49 48 49 50 50 50 51 52 52 52 51 52 52 53 54 55 55 56 56 56
39 39 41 42 43 44 46 46 46 46 46 46 46 46 46 47 47 48 49 50 51 51 50 51 50 50 51 52 53 53 52 52 53 52 52 52 54 55 55 56 57 58 58
39 39 40 40 42 43 44 45 45 46 46 47 47 47 47 48 48 48 49 50 51 51 51 52 52 52 52 52 53 53 52 52 52 52 52 53 54 55 56 56 57 58 59
39 40 40 41 41 42 43 45 46 46 46 47 47 46 47 49 49 50 50 50 52 52 53 53 54 54 53 53 53 53 53 52 52 52 52 54 54 55 56 57 58 58 58
38 39 39 39 40 40 41 43 45 45 46 46 46 46 47 47 48 50 51 52 52 53 53 54 54 55 55 55 54 53 53 51 51 52 53 53 55 55 56 56 57 57 57
36 36 38 38 39 39 40 41 43 45 46 46 46 46 46 47 48 49 50 50 51 51 52 53 54 55 55 55 55 53 53 54 53 53 53 53 54 55 55 55 55 56 56
34 35 36 38 39 39 40 41 42 44 45 46 45 45 45 45 45 46 47 48 49 50 52 52 53 53 54 54 54 55 55 55 55 55 54 54 54 54 54 54 54 55 55
34 35 35 37 38 39 40 40 41 42 43 44 44 45 45 46 46 47 47 47 49 50 50 50 50 51 52 53 53 54 54 55 55 54 55 55 53 53 53 52 52 53 54
35 36 36 36 38 39 39 40 41 42 42 43 44 45 45 46 46 47 47 47 47 48 48 49 50 50 50 51 52 53 53 53 54 54 54 54 54 54 53 51 51 51 51
Wind_Direction
246 248 250 249 248 248 248 249 250 253 253 252 252 251 250 250 249 249 251 254 257 260 263 266 271 274 278 280 283 285 287 290 292 293 295 296 297 297 296 297 298 298 297
246 247 248 247 248 248 249 250 251 254 256 254 252 250 249 250 249 249 250 254 257 260 263 265 269 273 276 278 281 285 286 288 290 292 293 294 295 296 296 296 295 295 294
246 246 247 247 247 248 249 252 252 254 257 256 253 250 249 251 250 250 251 253 257 260 263 264 268 271 274 276 278 281 285 287 289 290 290 292 293 294 294 294 294 293 292
245 246 246 246 246 247 249 252 253 254 255 255 254 252 250 251 251 250 252 254 257 259 263 265 267 270 272 273 276 279 283 285 288 289 289 290 291 292 292 292 291 292 291
245 246 246 245 245 246 249 251 252 252 254 254 254 253 252 252 252 251 253 255 257 260 262 265 267 270 272 273 276 278 281 283 285 287 288 289 289 289 289 290 289 289 290
246 246 246 246 245 247 249 251 251 252 253 254 254 254 253 253 253 253 254 256 257 259 261 264 267 270 272 273 274 276 279 281 282 284 286 287 287 287 287 287 287 287 288
247 248 246 246 246 247 249 250 251 253 254 254 255 255 255 254 254 254 254 255 257 259 261 263 265 268 271 272 273 275 277 279 280 282 283 284 285 284 284 285 286 286 286
247 249 249 248 247 249 250 251 251 253 254 255 256 257 256 256 254 254 253 254 256 258 261 263 265 267 269 271 274 275 276 278 279 280 281 281 282 282 282 283 284 285 286
248 251 250 250 248 249 251 251 251 252 254 256 257 258 258 257 255 254 254 255 257 259 261 263 265 266 268 270 271 273 275 276 277 278 279 280 281 281 281 281 282 284 285
249 251 252 250 249 250 251 252 252 253 255 257 257 259 260 260 258 256 256 257 258 259 261 263 265 267 268 269 271 273 274 276 277 277 278 279 279 280 281 281 282 283 284
249 250 250 251 250 250 252 253 253 253 255 257 257 259 260 261 260 258 257 258 259 261 262 263 265 267 268 270 271 273 274 275 277 278 278 278 278 279 280 281 282 282 283
251 251 250 250 251 250 251 253 253 253 254 256 257 257 259 260 260 258 257 259 261 261 262 264 265 267 269 269 271 273 275 276 277 278 279 279 278 278 279 280 281 282 283
252 252 250 249 249 249 250 252 252 253 253 254 255 257 258 258 259 259 258 260 261 262 262 263 265 267 268 269 271 273 275 277 278 279 279 278 278 278 279 280 281 282 282
253 252 249 248 249 249 250 251 252 253 253 254 255 256 257 259 260 260 259 261 262 262 263 264 266 267 268 269 272 274 275 277 279 280 279 278 278 279 279 279 280 282 281
253 252 250 248 249 250 249 251 252 254 256 256 256 256 257 258 260 261 261 261 262 263 263 264 266 267 269 271 272 273 276 277 279 279 279 279 279 279 279 279 280 281 281
254 253 250 248 248 249 249 249 252 254 255 256 257 257 258 259 260 261 261 261 262 263 263 264 266 268 270 272 273 274 275 277 278 278 278 279 279 280 280 279 280 280 281
253 253 251 249 248 249 249 250 252 254 256 257 257 258 259 259 260 261 261 261 263 264 264 264 266 268 270 272 273 274 276 277 278 278 278 278 278 279 280 279 280 281 280
254 254 252 249 248 249 249 249 252 255 256 257 258 259 259 260 261 262 262 263 264 264 264 265 267 269 271 274 275 275 276 277 277 277 277 277 278 279 280 281 281 282 282
254 254 252 250 250 250 251 253 253 254 256 257 259 259 260 261 262 263 264 264 265 266 266 267 268 270 272 274 275 276 276 276 276 276 277 277 278 280 281 281 282 282 282
255 254 253 253 254 254 255 255 254 254 256 258 259 260 261 262 263 264 265 266 266 267 267 268 270 271 273 274 275 276 275 276 276 276 277 278 279 281 281 281 282 282 282
255 254 254 254 255 256 257 257 256 255 257 258 259 260 261 262 263 265 266 266 267 268 268 269 270 272 272 273 274 274 274 275 276 276 277 278 279 280 281 281 281 281 281
254 253 254 254 254 256 258 259 258 257 257 258 260 261 262 263 264 265 266 267 267 268 269 271 271 272 273 274 273 274 274 275 277 277 277 278 279 281 282 282 282 281 281
255 255 255 253 254 256 259 260 260 260 259 260 261 263 263 264 266 266 267 268 268 270 271 272 273 273 274 274 274 274 275 277 279 279 278 279 280 281 282 282 282 281 281
256 256 256 255 255 257 259 262 263 263 262 262 263 264 266 266 267 267 268 269 269 271 272 272 273 274 274 274 274 276 277 278 280 280 280 281 281 282 282 282 282 282 281
259 256 256 256 256 257 259 262 264 264 264 264 265 266 267 268 268 269 270 270 270 272 273 273 274 274 274 275 276 278 279 280 280 280 281 282 283 282 282 283 283 283 282
260 258 258 258 257 259 261 263 263 263 264 265 266 267 268 270 271 272 271 271 271 272 273 274 274 274 275 277 279 280 280 281 282 283 283 283 284 284 283 283 284 284 284
Height
5797 5799 5801 5802 5804 5806 5808 5810 5811 5813 5814 5816 5817 5819 5821 5823 5825 5827 5829 5831 5832 5833 5834 5835 5835 5835 5836 5836 5836 5835 5835 5834 5834 5833 5832 5831 5830 5829 5828 5827 5826 5825 5823
5790 5793 5794 5796 5798 5800 5802 5804 5805 5807 5808 5810 5811 5813 5815 5817 5819 5821 5823 5825 5827 5828 5829 5829 5830 5830 5830 5830 5830 5830 5829 5829 5828 5828 5827 5826 5825 5824 5823 5822 5821 5819 5818
5783 5785 5787 5789 5791 5794 5796 5797 5799 5801 5802 5803 5805 5807 5809 5811 5813 5815 5817 5819 5821 5822 5823 5824 5824 5825 5825 5825 5825 5824 5824 5824 5823 5822 5821 5821 5820 5819 5817 5816 5815 5814 5813
5775 5778 5780 5782 5784 5787 5789 5791 5792 5794 5795 5797 5798 5800 5802 5804 5807 5809 5811 5813 5814 5816 5817 5818 5818 5819 5819 5819 5819 5819 5818 5818 5817 5816 5816 5815 5814 5813 5812 5811 5810 5809 5807
5766 5769 5772 5775 5777 5779 5782 5784 5785 5787 5788 5790 5792 5794 5796 5797 5799 5802 5804 5806 5807 5809 5810 5811 5812 5812 5813 5812 5813 5813 5812 5811 5811 5810 5809 5808 5807 5807 5806 5804 5803 5802 5801
5758 5761 5764 5766 5769 5772 5774 5776 5778 5779 5781 5783 5785 5786 5788 5790 5792 5794 5796 5798 5800 5801 5803 5804 5805 5805 5806 5806 5806 5805 5805 5804 5804 5803 5802 5801 5801 5800 5799 5798 5797 5796 5795
5749 5752 5755 5758 5761 5763 5766 5768 5770 5772 5773 5775 5777 5779 5780 5782 5784 5786 5788 5790 5792 5794 5795 5796 5797 5798 5798 5798 5798 5798 5798 5797 5796 5795 5795 5794 5793 5792 5791 5790 5790 5789 5788
5740 5743 5746 5749 5752 5754 5757 5759 5761 5763 5765 5767 5769 5770 5772 5774 5775 5778 5780 5782 5783 5785 5786 5787 5788 5789 5790 5790 5790 5790 5789 5789 5788 5788 5787 5786 5785 5784 5784 5783 5782 5781 5780
5730 5733 5736 5739 5742 5745 5748 5750 5753 5755 5757 5758 5760 5761 5763 5765 5766 5769 5771 5773 5774 5776 5777 5778 5779 5780 5780 5781 5781 5781 5780 5780 5780 5779 5778 5777 5777 5776 5775 5774 5773 5772 5771
5720 5723 5726 5729 5732 5735 5738 5740 5743 5745 5747 5749 5750 5752 5754 5755 5757 5759 5761 5762 5764 5766 5767 5768 5769 5770 5770 5771 5771 5771 5771 5770 5770 5769 5769 5768 5767 5766 5766 5765 5764 5763 5762
5709 5712 5715 5718 5721 5724 5728 5730 5733 5735 5737 5739 5741 5742 5743 5745 5746 5749 5751 5752 5754 5755 5757 5758 5759 5760 5760 5760 5761 5761 5761 5760 5760 5759 5758 5758 5757 5756 5755 5754 5753 5752 5751
5697 5700 5703 5706 5709 5713 5716 5719 5721 5724 5726 5728 5730 5732 5733 5735 5736 5737 5740 5741 5743 5744 5745 5747 5748 5748 5749 5749 5750 5750 5749 5749 5749 5748 5747 5746 5745 5745 5744 5743 5742 5741 5740
5686 5688 5691 5694 5697 5701 5704 5706 5709 5712 5715 5717 5719 5721 5722 5724 5725 5727 5728 5730 5732 5733 5734 5735 5736 5737 5737 5738 5738 5738 5738 5737 5737 5736 5735 5734 5733 5732 5731 5731 5729 5728 5727
5673 5675 5678 5681 5684 5688 5691 5694 5697 5700 5703 5705 5707 5709 5710 5712 5714 5715 5717 5718 5720 5721 5722 5723 5724 5725 5725 5725 5726 5726 5725 5725 5724 5723 5722 5721 5720 5719 5718 5717 5716 5714 5713
5660 5662 5665 5668 5672 5675 5678 5681 5685 5688 5690 5693 5695 5697 5699 5700 5702 5703 5705 5706 5708 5709 5711 5711 5712 5713 5713 5713 5713 5713 5712 5712 5711 5710 5709 5707 5706 5705 5704 5702 5701 5700 5699
5647 5649 5652 5656 5659 5663 5666 5669 5673 5676 5679 5681 5683 5685 5687 5688 5690 5692 5693 5694 5695 5697 5698 5700 5700 5700 5700 5701 5700 5700 5699 5698 5696 5695 5694 5693 5692 5690 5689 5688 5687 5685 5684
5635 5637 5640 5643 5647 5651 5654 5657 5661 5664 5667 5669 5671 5673 5675 5677 5678 5679 5681 5682 5683 5684 5686 5687 5687 5687 5688 5688 5687 5686 5685 5684 5682 5681 5680 5678 5677 5676 5675 5674 5672 5671 5669
5623 5626 5629 5632 5636 5639 5642 5646 5649 5652 5655 5657 5659 5661 5663 5664 5666 5667 5668 5670 5671 5672 5673 5674 5674 5674 5674 5674 5673 5672 5671 5669 5668 5667 5665 5664 5662 5661 5660 5658 5657 5655 5653
5613 5616 5618 5622 5625 5629 5632 5635 5638 5640 5643 5645 5647 5649 5650 5652 5653 5654 5656 5657 5658 5659 5660 5660 5661 5661 5660 5660 5659 5658 5656 5655 5653 5652 5651 5649 5648 5646 5644 5643 5641 5639 5636
5604 5606 5609 5612 5615 5618 5620 5623 5626 5629 5631 5633 5635 5636 5638 5639 5641 5642 5643 5644 5645 5645 5646 5646 5647 5647 5646 5645 5645 5644 5643 5640 5639 5637 5636 5634 5632 5630 5628 5627 5624 5622 5619
5595 5597 5599 5602 5605 5608 5610 5612 5615 5617 5620 5621 5623 5624 5626 5627 5628 5629 5630 5631 5632 5632 5633 5633 5633 5632 5632 5631 5630 5629 5628 5626 5625 5623 5621 5619 5617 5615 5613 5610 5607 5604 5603
5585 5588 5590 5592 5595 5598 5599 5602 5604 5606 5608 5610 5611 5612 5613 5615 5615 5616 5617 5618 5618 5618 5619 5619 5619 5618 5617 5616 5615 5613 5612 5612 5611 5610 5606 5605 5602 5600 5597 5594 5591 5588 5586
5576 5579 5581 5583 5585 5587 5589 5591 5592 5594 5596 5598 5599 5600 5601 5602 5602 5603 5604 5604 5604 5604 5604 5604 5604 5603 5602 5601 5600 5600 5598 5596 5595 5593 5590 5590 5587 5584 5581 5578 5574 5572 5570
5568 5569 5571 5573 5575 5577 5579 5580 5581 5583 5584 5586 5587 5588 5589 5590 5590 5590 5590 5591 5591 5590 5590 5590 5590 5589 5587 5586 5585 5584 5582 5581 5580 5577 5573 5573 5572 5570 5567 5563 5559 5556 5554
5559 5560 5562 5563 5565 5567 5568 5570 5571 5572 5573 5574 5575 5576 5576 5577 5577 5577 5577 5578 5578 5577 5576 5575 5575 5574 5573 5571 5570 5569 5567 5565 5565 5563 5559 5557 5556 5554 5552 5549 5545 5541 5538
5550 5551 5552 5554 5555 5557 5558 5559 5560 5561 5562 5563 5563 5563 5564 5564 5564 5564 5564 5564 5564 5564 5563 5562 5561 5560 5559 5558 5556 5554 5552 5550 5548 5548 5545 5542 5541 5537 5537 5536 5531 5527 5523